When you browse on this site, cookies collect data to enhance your experience and personalize the content and advertising you see.
Visit our Privacy Policy to learn more. By continuing to use the site, you agree to this use of cookies and data.
  • In Czech Republic
  • List of Countries
  • For 7 days
  • Water Temperature
  • Satellite Maps
  • Weather Map
  • Weather Widgets
  • user-avatar
    Login

    Hourly Weather Zacatecas

    Today, 24 January, Thursday

    Time Temperature Precipitation Wind Pressure Humidity
    00:00 +8°C° 0 mm 1 mps 586 mmHg 44%
    01:00 +8°C° 0 mm 1 mps 586 mmHg 45%
    02:00 +8°C° 0 mm 1 mps 585 mmHg 46%
    03:00 +8°C° 0 mm 1 mps 585 mmHg 46%
    04:00 +7°C° 0 mm 2 mps 585 mmHg 47%
    05:00 +7°C° 0 mm 2 mps 585 mmHg 48%
    06:00 +8°C° 0 mm 2 mps 586 mmHg 46%
    07:00 +9°C° 0 mm 3 mps 587 mmHg 44%
    08:00 +11°C° 0 mm 3 mps 588 mmHg 43%
    09:00 +13°C° 0 mm 4 mps 589 mmHg 34%
    10:00 +16°C° 0 mm 5 mps 590 mmHg 25%
    11:00 +20°C° 0 mm 6 mps 591 mmHg 16%
    12:00 +20°C° 0 mm 6 mps 590 mmHg 14%
    13:00 +21°C° 0 mm 6 mps 590 mmHg 13%
    14:00 +22°C° 0 mm 6 mps 590 mmHg 11%
    15:00 +21°C° 0 mm 5 mps 589 mmHg 13%
    16:00 +20°C° 0 mm 4 mps 589 mmHg 15%
    17:00 +19°C° 0 mm 3 mps 588 mmHg 16%
    18:00 +17°C° 0 mm 3 mps 588 mmHg 19%
    19:00 +14°C° 0 mm 3 mps 588 mmHg 21%
    20:00 +12°C° 0 mm 3 mps 587 mmHg 23%
    21:00 +12°C° 0 mm 2 mps 587 mmHg 26%
    22:00 +10°C° 0 mm 2 mps 587 mmHg 29%
    23:00 +10°C° 0 mm 1 mps 587 mmHg 31%

    Tomorrow, 25 January, Friday

    Time Temperature Precipitation Wind Pressure Humidity
    00:00 +10°C° 0 mm 1 mps 587 mmHg 33%
    01:00 +9°C° 0 mm 1 mps 586 mmHg 35%
    02:00 +8°C° 0 mm 1 mps 586 mmHg 36%
    03:00 +7°C° 0 mm 1 mps 585 mmHg 38%
    04:00 +6°C° 0 mm 0 mps 585 mmHg 39%
    05:00 +5°C° 0 mm 0 mps 585 mmHg 40%
    06:00 +7°C° 0 mm 0 mps 586 mmHg 36%
    07:00 +9°C° 0 mm 0 mps 588 mmHg 32%
    08:00 +10°C° 0 mm 0 mps 589 mmHg 28%
    09:00 +13°C° 0 mm 1 mps 590 mmHg 25%
    10:00 +15°C° 0 mm 1 mps 590 mmHg 22%
    11:00 +16°C° 0 mm 1 mps 591 mmHg 19%
    12:00 +18°C° 0 mm 2 mps 590 mmHg 16%
    13:00 +19°C° 0 mm 3 mps 590 mmHg 14%
    14:00 +21°C° 0 mm 4 mps 590 mmHg 12%
    15:00 +20°C° 0 mm 4 mps 589 mmHg 13%
    16:00 +19°C° 0 mm 4 mps 589 mmHg 15%
    17:00 +19°C° 0 mm 4 mps 589 mmHg 17%
    18:00 +17°C° 0 mm 4 mps 588 mmHg 20%
    19:00 +14°C° 0 mm 4 mps 588 mmHg 22%
    20:00 +12°C° 0 mm 3 mps 587 mmHg 25%
    21:00 +12°C° 0 mm 3 mps 587 mmHg 27%
    22:00 +11°C° 0 mm 4 mps 587 mmHg 29%
    23:00 +10°C° 0 mm 4 mps 587 mmHg 30%

    Day after tomorrow, 26 January, Saturday

    Time Temperature Precipitation Wind Pressure Humidity
    00:00 +10°C° 0 mm 4 mps 587 mmHg 32%
    01:00 +10°C° 0 mm 4 mps 586 mmHg 33%
    02:00 +8°C° 0 mm 4 mps 586 mmHg 35%
    03:00 +8°C° 0 mm 4 mps 586 mmHg 35%
    04:00 +7°C° 0 mm 4 mps 586 mmHg 36%
    05:00 +7°C° 0 mm 4 mps 585 mmHg 36%
    06:00 +8°C° 0 mm 4 mps 586 mmHg 34%
    07:00 +9°C° 0 mm 5 mps 587 mmHg 32%
    08:00 +10°C° 0 mm 6 mps 587 mmHg 30%
    09:00 +12°C° 0 mm 7 mps 588 mmHg 24%
    10:00 +16°C° 0 mm 8 mps 589 mmHg 18%
    11:00 +18°C° 0 mm 10 mps 590 mmHg 13%
    12:00 +19°C° 0 mm 10 mps 589 mmHg 12%
    13:00 +21°C° 0 mm 10 mps 589 mmHg 11%
    14:00 +21°C° 0 mm 9 mps 588 mmHg 11%
    15:00 +20°C° 0 mm 8 mps 588 mmHg 12%
    16:00 +18°C° 0 mm 7 mps 587 mmHg 13%
    17:00 +19°C° 0 mm 6 mps 587 mmHg 15%
    18:00 +15°C° 0 mm 7 mps 587 mmHg 23%
    19:00 +11°C° 0 mm 7 mps 587 mmHg 31%
    20:00 +8°C° 0 mm 7 mps 587 mmHg 39%
    21:00 +6°C° 0 mm 7 mps 587 mmHg 36%
    22:00 +6°C° 0 mm 7 mps 587 mmHg 33%
    23:00 +5°C° 0 mm 6 mps 588 mmHg 30%

    27 January, Sunday

    Time Temperature Precipitation Wind Pressure Humidity
    00:00 +4°C° 0 mm 6 mps 587 mmHg 36%
    01:00 +3°C° 0 mm 5 mps 587 mmHg 43%
    02:00 +2°C° 0 mm 5 mps 587 mmHg 49%
    03:00 +3°C° 0 mm 4 mps 587 mmHg 55%
    04:00 +1°C° 0 mm 4 mps 587 mmHg 62%
    05:00 +2°C° 0 mm 3 mps 586 mmHg 68%
    06:00 +2°C° 0 mm 3 mps 587 mmHg 64%
    07:00 +3°C° 0 mm 4 mps 588 mmHg 60%
    08:00 +3°C° 0 mm 4 mps 588 mmHg 55%
    09:00 +5°C° 0 mm 5 mps 589 mmHg 47%
    10:00 +7°C° 0 mm 5 mps 590 mmHg 39%
    11:00 +8°C° 0 mm 5 mps 590 mmHg 30%
    12:00 +9°C° 0 mm 5 mps 590 mmHg 28%
    13:00 +10°C° 0 mm 5 mps 589 mmHg 26%
    14:00 +12°C° 0 mm 4 mps 589 mmHg 23%
    15:00 +12°C° 0 mm 4 mps 588 mmHg 23%
    16:00 +12°C° 0 mm 3 mps 588 mmHg 24%
    17:00 +12°C° 0 mm 3 mps 587 mmHg 24%
    18:00 +10°C° 0 mm 2 mps 587 mmHg 28%
    19:00 +9°C° 0 mm 1 mps 587 mmHg 33%
    20:00 +8°C° 0 mm 1 mps 586 mmHg 37%
    21:00 +7°C° 0 mm 1 mps 586 mmHg 37%
    22:00 +7°C° 0 mm 1 mps 586 mmHg 37%
    23:00 +7°C° 0 mm 1 mps 585 mmHg 37%

    28 January, Monday

    Time Temperature Precipitation Wind Pressure Humidity
    00:00 +6°C° 0 mm 2 mps 585 mmHg 36%
    01:00 +5°C° 0 mm 2 mps 584 mmHg 36%
    02:00 +5°C° 0 mm 2 mps 584 mmHg 35%
    03:00 +5°C° 0 mm 2 mps 584 mmHg 35%
    04:00 +4°C° 0 mm 3 mps 584 mmHg 34%
    05:00 +4°C° 0 mm 3 mps 583 mmHg 34%
    06:00 +5°C° 0 mm 3 mps 584 mmHg 32%
    07:00 +7°C° 0 mm 3 mps 585 mmHg 31%
    08:00 +8°C° 0 mm 3 mps 586 mmHg 29%
    09:00 +11°C° 0 mm 4 mps 587 mmHg 24%
    10:00 +15°C° 0 mm 5 mps 588 mmHg 18%
    11:00 +19°C° 0 mm 6 mps 590 mmHg 13%
    12:00 +20°C° 0 mm 6 mps 589 mmHg 12%
    13:00 +21°C° 0 mm 6 mps 589 mmHg 11%
    14:00 +22°C° 0 mm 6 mps 588 mmHg 11%
    15:00 +21°C° 0 mm 6 mps 588 mmHg 12%
    16:00 +20°C° 0 mm 5 mps 587 mmHg 14%
    17:00 +19°C° 0 mm 4 mps 587 mmHg 16%
    18:00 +17°C° 0 mm 4 mps 586 mmHg 19%
    19:00 +14°C° 0 mm 4 mps 586 mmHg 21%
    20:00 +12°C° 0 mm 4 mps 586 mmHg 23%
    21:00 +11°C° 0 mm 4 mps 585 mmHg 24%
    22:00 +10°C° 0 mm 4 mps 585 mmHg 26%
    23:00 +9°C° 0 mm 3 mps 585 mmHg 27%

    29 January, Tuesday

    Time Temperature Precipitation Wind Pressure Humidity
    00:00 +9°C° 0 mm 3 mps 585 mmHg 29%
    01:00 +8°C° 0 mm 3 mps 584 mmHg 31%
    02:00 +7°C° 0 mm 3 mps 584 mmHg 34%
    03:00 +7°C° 0 mm 2 mps 584 mmHg 36%
    04:00 +6°C° 0 mm 2 mps 584 mmHg 37%
    05:00 +6°C° 0 mm 2 mps 583 mmHg 39%
    06:00 +7°C° 0 mm 2 mps 584 mmHg 36%
    07:00 +9°C° 0 mm 2 mps 585 mmHg 33%
    08:00 +10°C° 0 mm 2 mps 586 mmHg 30%
    09:00 +13°C° 0 mm 2 mps 587 mmHg 24%
    10:00 +16°C° 0 mm 2 mps 588 mmHg 19%
    11:00 +18°C° 0 mm 2 mps 588 mmHg 13%
    12:00 +19°C° 0 mm 3 mps 588 mmHg 12%
    13:00 +20°C° 0 mm 3 mps 587 mmHg 11%
    14:00 +21°C° 0 mm 4 mps 587 mmHg 10%
    15:00 +21°C° 0 mm 4 mps 587 mmHg 12%
    16:00 +20°C° 0 mm 4 mps 586 mmHg 13%
    17:00 +20°C° 0 mm 4 mps 586 mmHg 15%
    18:00 +18°C° 0 mm 4 mps 586 mmHg 17%
    19:00 +15°C° 0 mm 4 mps 586 mmHg 18%
    20:00 +13°C° 0 mm 4 mps 586 mmHg 20%
    21:00 +12°C° 0 mm 3 mps 586 mmHg 23%
    22:00 +11°C° 0 mm 3 mps 586 mmHg 27%
    23:00 +10°C° 0 mm 2 mps 586 mmHg 30%
    Show more